Regional Weather Roundup
Issued by NWS Portland, ME

Home | Current Version | Previous Version | Text Only | Print | Product List | Glossary On
Versions: 1 2 3 4 5 6 7 8 9 10 11 12 13 14 15 16 17 18 19 20 21 22 23 24 25 26 27 28 29 30 31 32 33 34 35 36 37 38 39 40 41 42 43 44 45 46 47 48 49 50
000
ASUS41 KGYX 231010
RWRGYX
WEATHER ROUNDUP FOR MAINE AND NEW HAMPSHIRE
NATIONAL WEATHER SERVICE GRAY ME
600 AM EDT WED JUL 23 2014

MEZ002-005-006-010-012-015-018-020-021-024-026-027-029-231100-
MAINE

CITY           SKY/WX    TMP DP  RH WIND       PRES   REMARKS
PORTLAND       CLEAR     71  67  87 SW5       29.87F
SANFORD        CLEAR     70  64  83 SW3       29.89S
BAR HARBOR     CLEAR     64  64 100 CALM      29.87S
WISCASSET      CLEAR     64  62  93 CALM      29.88S FOG
ROCKLAND       CLEAR     63  63 100 SW3       29.85F
FRYEBURG       CLEAR     65  63  93 N5        29.89S FOG
LEWISTONAUBURN CLEAR     64  61  88 CALM      29.87S
AUGUSTA        CLEAR     67  65  93 S3        29.87S
WATERVILLE     MOCLDY    64  63  94 SW3       29.82F VSB 3/4
BANGOR         PTCLDY    66  64  93 S6        29.86S FOG
GREENVILLE       N/A     68  63  84 S6        29.85F
MILLINOCKET    CLEAR     66  63  90 CALM      29.83F FOG
HOULTON        CLEAR     66  63  90 S8        29.80F
PRESQUE ISLE   PTCLDY    66  61  82 CALM      29.77F
FRENCHVILLE    CLEAR     65  61  87 S8        29.74F
CARIBOU        CLEAR     67  64  90 S6        29.76F
$$

NHZ002-005-008-009-011-012-014-231100-
NEW HAMPSHIRE

CITY           SKY/WX    TMP DP  RH WIND       PRES   REMARKS
PORTSMOUTH     CLEAR     71  67  87 SW7       29.90S
ROCHESTER      CLEAR     71  67  87 CALM      29.90S
NASHUA         CLEAR     71  67  87 CALM      29.93S
MANCHESTER     CLEAR     71  66  84 S5        29.90S
CONCORD        CLEAR     68  67  96 E3        29.91S FOG
LACONIA        CLEAR     72  64  78 W7        29.90S
PLYMOUTH       FOG       64  62  96 CALM      29.91S VSB<1/4
BERLIN         MOCLDY    62  60  93 CALM      29.90S FOG
WHITEFIELD     PTCLDY    61  58  90 CALM      29.89F
JAFFREY        MOCLDY    67  65  93 S8        29.97F
LEBANON        CLOUDY    71  67  87 S9        29.90S
MT WASHINGTON  FOG       55  55 100 W44G51      N/A  VSB 0
$$

VTZ005-007-008-231100-
VERMONT

CITY           SKY/WX    TMP DP  RH WIND       PRES   REMARKS
ST JOHNSBURY     N/A     63  61  93 MISG      29.86F
MONTPELIER     PTCLDY    72  67  84 S10       29.92F
BURLINGTON     PTCLDY    76  68  76 S14       29.82F
$$

MAZ007-012-024-CTZ003-RIZ002-NYZ038-NYZ072-231100-
SOUTHERN NEW ENGLAND AND NY

CITY           SKY/WX    TMP DP  RH WIND       PRES   REMARKS
BOSTON         PTCLDY    71  64  78 SW14      29.92F
WORCESTER      CLEAR     67  65  93 SW12      29.98S
NANTUCKET      CLEAR     66  65  96 SW8       30.00F
PROVIDENCE     PTCLDY    70  63  78 SW6       29.97F
HARTFORD       PTCLDY    70  64  81 SE6       29.94F
ALBANY         PTCLDY    73  69  87 SE6       29.91S
NEW YORK CITY  PTCLDY    74  62  66 SW12      29.97F
$$

ANZ081-ANZ082-ANZ150-NHZ014-MEZ023>029-231100-
COASTAL MARINE OBSERVATIONS

STATION/POSITION TIME  TEMP    WIND        PRES    WAVE
                       AIR SEA DIR/SP/G            HT/PER
                 (UTC) (F)     (DEG/KT/KT) (MB)    (FT/S)
MOUNT DESERT ROC 1000   59                 1011.6
MATINICUS ROCK   1000          220/ 19/ 20 1011.3F
PORTLAND WX BUOY 1000   66 64  210/  8/  8 1011.7F   3/ 7
WELLS            1000   72 60  280/  6/ 14 1011.2R
ISLE OF SHOALS   1000   70     230/ 16/ 16 1011.9F
JEFFREYS LEDGE   1000      65                N/A     3/ 7
CASHES LEDGE BUO 1000   69 66  VRB 16/ 19  1011.6F   4/ 5
$$

.............KEY..............
   WCI - WIND CHILL
   TC  - TEMPERATURE IN CELSIUS
   VSB - VISIBILITY IN MILES
   HX  - HEAT INDEX
   FAIR- INDICATES FEW OR NO CLOUDS BELOW 12,000 FT, WITH NO
         SIGNIFICANT WEATHER AND/OR OBSTRUCTIONS TO VISIBILITY.




USA.gov is the U.S. government's official web portal to all federal, state and local government web resources and services.